WBANNO,USDM_WEEK,LONGITUDE,LATITUDE,SMVWC_5_CM_MEAN,SMANOM_5_CM_MEAN,SMPERC_5_CM_30COUNTS,SMPERC_5_CM_70COUNTS,SMVWC_10_CM_MEAN,SMANOM_10_CM_MEAN,SMPERC_10_CM_30COUNTS,SMPERC_10_CM_70COUNTS,SMVWC_20_CM_MEAN,SMANOM_20_CM_MEAN,SMPERC_20_CM_30COUNTS,SMPERC_20_CM_70COUNTS,SMVWC_50_CM_MEAN,SMANOM_50_CM_MEAN,SMPERC_50_CM_30COUNTS,SMPERC_50_CM_70COUNTS,SMVWC_100_CM_MEAN,SMANOM_100_CM_MEAN,SMPERC_100_CM_30COUNTS,SMPERC_100_CM_70COUNTS,SMVWC_TOP_CM_MEAN,SMANOM_TOP_CM_MEAN,SMPERC_TOP_CM_30COUNTS,SMPERC_TOP_CM_70COUNTS,SMVWC_COLUMN_CM_MEAN,SMANOM_COLUMN_CM_MEAN,SMPERC_COLUMN_CM_30COUNTS,SMPERC_COLUMN_CM_70COUNTS
23904,20090626,-91.78,35.82,,,,,,,,,,,,,,,,,,,,,,,,,,,,
23904,20090627,-91.78,35.82,,,,,,,,,,,,,,,,,,,,,,,,,,,,
23904,20090628,-91.78,35.82,,,,,,,,,,,,,,,,,,,,,,,,,,,,
23904,20090629,-91.78,35.82,,,,,,,,,,,,,,,,,,,,,,,,,,,,
23904,20090630,-91.78,35.82,,,,,,,,,,,,,,,,,,,,,,,,,,,,
23904,20090701,-91.78,35.82,,,,,,,,,,,,,,,,,,,,,,,,,,,,
23904,20090702,-91.78,35.82,0.158,-0.18,0,0,0.179,-0.11,0,0,0.162,-0.32,0,0,0.224,-0.32,0,0,0.212,-0.29,0.392,0,0.169,-0.15,0,0,0.187,-0.21,0,0
23904,20090703,-91.78,35.82,0.155,-0.2,0,0,0.177,-0.11,0,0,0.161,-0.32,0,0,0.224,-0.3,0,0,0.213,-0.24,0.286,0,0.166,-0.16,0,0,0.186,-0.2,0,0
23904,20090704,-91.78,35.82,0.15,-0.22,0,0,0.175,-0.11,0,0,0.159,-0.31,0,0,0.223,-0.29,0,0,0.214,-0.19,0.143,0,0.163,-0.17,0,0,0.184,-0.2,0,0
23904,20090705,-91.78,35.82,0.146,-0.24,0,0,0.172,-0.12,0,0,0.158,-0.31,0,0,0.222,-0.28,0,0,0.214,-0.16,0.012,0,0.159,-0.19,0,0,0.182,-0.21,0,0
23904,20090706,-91.78,35.82,0.142,-0.27,0,0,0.17,-0.13,0,0,0.157,-0.32,0,0,0.221,-0.27,0,0,0.215,-0.13,0,0,0.156,-0.21,0,0,0.181,-0.22,0,0
23904,20090707,-91.78,35.82,0.138,-0.3,0,0,0.168,-0.15,0,0,0.155,-0.32,0,0,0.22,-0.27,0,0,0.215,-0.12,0,0,0.153,-0.23,0,0,0.179,-0.24,0,0
23904,20090708,-91.78,35.82,0.134,-0.33,0.018,0,0.166,-0.16,0,0,0.154,-0.33,0,0,0.219,-0.26,0,0,0.215,-0.11,0,0,0.15,-0.25,0,0,0.178,-0.26,0,0
23904,20090709,-91.78,35.82,0.13,-0.36,0.149,0,0.164,-0.18,0,0,0.153,-0.34,0,0,0.219,-0.26,0,0,0.214,-0.1,0,0,0.147,-0.27,0,0,0.176,-0.27,0,0
23904,20090710,-91.78,35.82,0.125,-0.39,0.292,0,0.162,-0.2,0,0,0.152,-0.36,0,0,0.218,-0.25,0,0,0.214,-0.1,0,0,0.144,-0.3,0,0,0.174,-0.3,0,0
23904,20090711,-91.78,35.82,0.121,-0.43,0.435,0,0.16,-0.23,0,0,0.15,-0.37,0,0,0.217,-0.25,0,0,0.214,-0.09,0,0,0.14,-0.33,0.113,0,0.172,-0.32,0,0
23904,20090712,-91.78,35.82,0.116,-0.47,0.577,0,0.157,-0.25,0,0,0.149,-0.39,0,0,0.216,-0.26,0,0,0.214,-0.08,0,0,0.137,-0.36,0.256,0,0.17,-0.34,0.06,0
23904,20090713,-91.78,35.82,0.111,-0.51,0.72,0,0.154,-0.27,0,0,0.147,-0.41,0,0,0.215,-0.27,0,0,0.214,-0.08,0,0,0.133,-0.39,0.399,0,0.168,-0.37,0.202,0
23904,20090714,-91.78,35.82,0.109,-0.53,0.857,0,0.152,-0.3,0,0,0.146,-0.43,0.042,0,0.214,-0.28,0,0,0.214,-0.08,0,0,0.13,-0.41,0.512,0,0.167,-0.39,0.327,0
23904,20090715,-91.78,35.82,0.118,-0.47,0.839,0,0.153,-0.29,0,0,0.144,-0.45,0.155,0,0.214,-0.29,0,0,0.213,-0.08,0,0,0.135,-0.38,0.512,0,0.168,-0.38,0.327,0
23904,20090716,-91.78,35.82,0.127,-0.42,0.708,0.012,0.157,-0.26,0,0.012,0.144,-0.46,0.25,0,0.213,-0.3,0,0,0.213,-0.07,0,0,0.142,-0.33,0.512,0.012,0.171,-0.36,0.327,0.006
23904,20090717,-91.78,35.82,0.155,-0.22,0.565,0.155,0.181,-0.08,0,0.155,0.163,-0.3,0.25,0.137,0.217,-0.25,0,0,0.218,0.05,0,0.131,0.168,-0.15,0.512,0.155,0.187,-0.19,0.327,0.149
23904,20090718,-91.78,35.82,0.177,-0.07,0.423,0.25,0.202,0.08,0,0.298,0.179,-0.16,0.25,0.28,0.221,-0.2,0,0,0.222,0.15,0,0.274,0.189,0.01,0.399,0.298,0.2,-0.06,0.327,0.292
23904,20090719,-91.78,35.82,0.196,0.06,0.28,0.25,0.22,0.21,0,0.44,0.193,-0.04,0.25,0.345,0.224,-0.17,0,0,0.225,0.22,0,0.417,0.208,0.14,0.256,0.387,0.211,0.06,0.268,0.351
23904,20090720,-91.78,35.82,0.213,0.17,0.137,0.25,0.236,0.33,0,0.577,0.205,0.06,0.25,0.345,0.227,-0.13,0,0,0.227,0.28,0,0.542,0.224,0.26,0.113,0.387,0.222,0.16,0.125,0.351
23904,20090721,-91.78,35.82,0.226,0.26,0,0.25,0.25,0.44,0,0.583,0.216,0.15,0.208,0.345,0.23,-0.1,0,0,0.229,0.33,0,0.565,0.238,0.36,0,0.387,0.23,0.25,0,0.351
23904,20090722,-91.78,35.82,0.245,0.39,0,0.375,0.271,0.59,0,0.714,0.235,0.32,0.095,0.47,0.234,-0.04,0,0,0.231,0.37,0,0.565,0.258,0.5,0,0.512,0.243,0.39,0,0.476
23904,20090723,-91.78,35.82,0.261,0.5,0,0.506,0.288,0.72,0,0.845,0.252,0.47,0,0.613,0.241,0.05,0,0.077,0.233,0.41,0,0.565,0.275,0.62,0,0.643,0.255,0.52,0,0.613
23904,20090724,-91.78,35.82,0.255,0.46,0,0.5,0.284,0.68,0,0.845,0.248,0.44,0,0.619,0.243,0.07,0,0.077,0.229,0.32,0,0.435,0.269,0.58,0,0.643,0.252,0.49,0,0.613
23904,20090725,-91.78,35.82,0.252,0.44,0,0.411,0.281,0.65,0,0.845,0.245,0.42,0,0.583,0.244,0.09,0,0.077,0.227,0.26,0,0.292,0.266,0.55,0,0.613,0.25,0.46,0,0.589
23904,20090726,-91.78,35.82,0.251,0.44,0,0.411,0.279,0.63,0,0.845,0.244,0.41,0,0.524,0.246,0.11,0,0.077,0.225,0.21,0,0.149,0.265,0.54,0,0.524,0.249,0.46,0,0.536
23904,20090727,-91.78,35.82,0.252,0.44,0,0.411,0.278,0.62,0,0.786,0.243,0.41,0,0.524,0.248,0.13,0,0.077,0.223,0.17,0,0.024,0.265,0.54,0,0.524,0.249,0.46,0,0.536
23904,20090728,-91.78,35.82,0.252,0.45,0,0.411,0.277,0.61,0,0.78,0.243,0.4,0,0.524,0.249,0.15,0,0.077,0.222,0.14,0,0,0.265,0.53,0,0.524,0.249,0.45,0,0.536
23904,20090729,-91.78,35.82,0.237,0.34,0,0.286,0.266,0.52,0,0.649,0.234,0.32,0,0.399,0.249,0.14,0,0.077,0.221,0.11,0,0,0.252,0.43,0,0.399,0.241,0.37,0,0.411
23904,20090730,-91.78,35.82,0.235,0.32,0,0.226,0.262,0.49,0,0.589,0.228,0.27,0,0.286,0.246,0.09,0,0,0.219,0.07,0,0,0.249,0.41,0,0.339,0.238,0.34,0,0.351
23904,20090731,-91.78,35.82,0.244,0.38,0,0.232,0.266,0.51,0,0.589,0.231,0.29,0,0.286,0.248,0.11,0,0.107,0.218,0.04,0,0,0.255,0.45,0,0.339,0.241,0.37,0,0.351
23904,20090801,-91.78,35.82,0.252,0.45,0,0.369,0.27,0.54,0,0.589,0.234,0.32,0,0.321,0.251,0.16,0,0.25,0.217,0.02,0,0,0.261,0.5,0,0.369,0.245,0.41,0,0.375
23904,20090802,-91.78,35.82,0.261,0.51,0,0.512,0.276,0.59,0,0.589,0.238,0.36,0,0.458,0.254,0.2,0,0.393,0.217,0.02,0,0,0.268,0.55,0,0.512,0.249,0.45,0,0.512
23904,20090803,-91.78,35.82,0.269,0.57,0,0.655,0.282,0.63,0,0.655,0.241,0.39,0,0.601,0.257,0.25,0,0.536,0.218,0.04,0,0,0.275,0.61,0,0.655,0.253,0.5,0,0.655
23904,20090804,-91.78,35.82,0.276,0.62,0,0.708,0.287,0.67,0,0.798,0.245,0.43,0,0.738,0.259,0.29,0,0.637,0.22,0.07,0,0,0.282,0.65,0,0.798,0.257,0.55,0,0.798
23904,20090805,-91.78,35.82,0.281,0.65,0,0.726,0.291,0.7,0,0.94,0.248,0.46,0,0.75,0.262,0.33,0,0.696,0.222,0.11,0,0,0.286,0.68,0,0.863,0.261,0.58,0,0.893
23904,20090806,-91.78,35.82,0.28,0.65,0,0.786,0.29,0.69,0,1,0.249,0.47,0,0.72,0.264,0.37,0,0.696,0.223,0.14,0,0,0.285,0.68,0,0.923,0.261,0.59,0,0.952
23904,20090807,-91.78,35.82,0.27,0.58,0,0.708,0.282,0.63,0,1,0.243,0.42,0,0.577,0.262,0.34,0,0.589,0.225,0.18,0,0,0.276,0.61,0,0.923,0.257,0.54,0,0.917
23904,20090808,-91.78,35.82,0.262,0.52,0,0.565,0.275,0.58,0,0.935,0.238,0.37,0,0.435,0.259,0.29,0,0.446,0.227,0.21,0,0,0.268,0.55,0,0.792,0.252,0.49,0,0.774
23904,20090809,-91.78,35.82,0.251,0.44,0,0.423,0.267,0.51,0,0.792,0.233,0.33,0,0.292,0.256,0.25,0,0.304,0.227,0.22,0,0,0.259,0.48,0,0.649,0.247,0.44,0,0.631
23904,20090810,-91.78,35.82,0.242,0.36,0,0.28,0.258,0.44,0,0.649,0.227,0.28,0,0.149,0.254,0.21,0,0.161,0.227,0.21,0,0,0.25,0.41,0,0.506,0.241,0.38,0,0.488
23904,20090811,-91.78,35.82,0.232,0.29,0,0.226,0.25,0.37,0,0.506,0.222,0.23,0,0.012,0.251,0.17,0,0.06,0.226,0.2,0,0,0.241,0.33,0,0.363,0.236,0.32,0,0.345
23904,20090812,-91.78,35.82,0.225,0.23,0,0.208,0.243,0.32,0,0.363,0.218,0.18,0,0,0.249,0.14,0,0,0.225,0.18,0,0,0.234,0.27,0,0.298,0.232,0.26,0,0.25
23904,20090813,-91.78,35.82,0.213,0.13,0,0.065,0.234,0.24,0,0.22,0.213,0.12,0,0,0.247,0.11,0,0,0.224,0.16,0,0,0.224,0.19,0,0.155,0.226,0.19,0,0.107
23904,20090814,-91.78,35.82,0.201,0.03,0,0,0.226,0.16,0,0.077,0.207,0.06,0,0,0.245,0.07,0,0,0.223,0.15,0,0,0.214,0.09,0,0.012,0.221,0.12,0,0
23904,20090815,-91.78,35.82,0.19,-0.06,0,0,0.218,0.08,0,0,0.202,0,0,0,0.243,0.04,0,0,0.222,0.12,0,0,0.204,0.01,0,0,0.215,0.05,0,0
23904,20090816,-91.78,35.82,0.18,-0.15,0.143,0,0.209,0,0,0,0.196,-0.06,0,0,0.242,0.01,0,0,0.221,0.1,0,0,0.195,-0.08,0,0,0.21,-0.02,0,0
23904,20090817,-91.78,35.82,0.171,-0.23,0.286,0,0.202,-0.07,0,0,0.191,-0.12,0,0,0.24,-0.03,0,0,0.22,0.08,0,0,0.187,-0.15,0.101,0,0.205,-0.09,0,0
23904,20090818,-91.78,35.82,0.177,-0.19,0.339,0.071,0.207,-0.04,0,0.071,0.192,-0.11,0,0.042,0.24,-0.03,0,0.006,0.22,0.07,0,0,0.192,-0.11,0.155,0.071,0.207,-0.07,0,0.071
23904,20090819,-91.78,35.82,0.191,-0.08,0.339,0.214,0.217,0.06,0,0.214,0.197,-0.06,0,0.042,0.24,-0.02,0,0.006,0.22,0.07,0,0,0.204,-0.01,0.155,0.214,0.213,0,0,0.214
23904,20090820,-91.78,35.82,0.205,0.03,0.339,0.357,0.228,0.15,0,0.357,0.203,-0.01,0,0.048,0.24,-0.03,0,0.006,0.219,0.06,0,0,0.216,0.1,0.155,0.357,0.219,0.07,0,0.321
23904,20090821,-91.78,35.82,0.226,0.21,0.339,0.5,0.246,0.32,0,0.5,0.215,0.13,0,0.19,0.243,0.02,0,0.006,0.219,0.05,0,0,0.236,0.27,0.155,0.5,0.23,0.21,0,0.464
23904,20090822,-91.78,35.82,0.245,0.36,0.339,0.643,0.262,0.47,0,0.643,0.226,0.24,0,0.333,0.246,0.09,0,0.006,0.219,0.05,0,0,0.253,0.42,0.155,0.643,0.24,0.33,0,0.607
23904,20090823,-91.78,35.82,0.262,0.5,0.196,0.786,0.276,0.61,0,0.786,0.235,0.35,0,0.476,0.25,0.15,0,0.006,0.219,0.04,0,0,0.269,0.56,0.155,0.786,0.249,0.45,0,0.75
23904,20090824,-91.78,35.82,0.278,0.64,0.054,0.833,0.29,0.74,0,0.929,0.244,0.44,0,0.482,0.253,0.21,0,0.006,0.218,0.03,0,0,0.284,0.7,0.054,0.923,0.257,0.56,0,0.821
23904,20090825,-91.78,35.82,0.279,0.64,0,0.762,0.292,0.76,0,0.988,0.246,0.45,0,0.44,0.254,0.23,0,0,0.218,0.02,0,0,0.285,0.71,0,0.863,0.258,0.57,0,0.75
23904,20090826,-91.78,35.82,0.269,0.57,0,0.619,0.285,0.7,0,0.857,0.244,0.43,0,0.44,0.255,0.24,0,0,0.217,0,0,0,0.277,0.64,0,0.72,0.254,0.52,0,0.607
23904,20090827,-91.78,35.82,0.258,0.49,0,0.476,0.278,0.64,0,0.714,0.241,0.39,0,0.435,0.256,0.25,0,0,0.216,-0.02,0,0,0.268,0.57,0,0.577,0.25,0.47,0,0.5
23904,20090828,-91.78,35.82,0.24,0.34,0,0.333,0.264,0.51,0,0.571,0.231,0.27,0,0.292,0.254,0.22,0,0,0.215,-0.02,0,0,0.252,0.43,0,0.435,0.241,0.35,0,0.357
23904,20090829,-91.78,35.82,0.225,0.22,0,0.19,0.252,0.4,0,0.429,0.222,0.17,0,0.149,0.251,0.16,0,0,0.215,-0.03,0,0,0.239,0.31,0,0.292,0.233,0.24,0,0.214
23904,20090830,-91.78,35.82,0.213,0.12,0,0.048,0.242,0.31,0,0.286,0.215,0.07,0,0.006,0.248,0.1,0,0,0.215,-0.03,0,0,0.227,0.21,0,0.149,0.226,0.15,0,0.071
23904,20090831,-91.78,35.82,0.202,0.03,0,0,0.233,0.22,0,0.143,0.209,-0.01,0,0,0.246,0.05,0,0,0.214,-0.04,0,0,0.217,0.13,0,0.012,0.221,0.07,0,0
23904,20090901,-91.78,35.82,0.192,-0.05,0,0,0.225,0.15,0,0.012,0.203,-0.09,0,0,0.243,0,0,0,0.214,-0.04,0,0,0.209,0.05,0,0,0.215,-0.01,0,0
23904,20090902,-91.78,35.82,0.184,-0.12,0,0,0.218,0.08,0,0,0.198,-0.16,0,0,0.241,-0.04,0,0,0.213,-0.05,0,0,0.201,-0.02,0,0,0.211,-0.07,0,0
23904,20090903,-91.78,35.82,0.176,-0.18,0,0,0.212,0.03,0,0,0.194,-0.23,0.006,0,0.239,-0.08,0,0,0.213,-0.06,0,0,0.194,-0.08,0,0,0.207,-0.13,0,0
23904,20090904,-91.78,35.82,0.17,-0.22,0.065,0,0.207,-0.02,0,0,0.19,-0.29,0.06,0,0.237,-0.12,0,0,0.212,-0.07,0,0,0.189,-0.13,0,0,0.203,-0.18,0,0
23904,20090905,-91.78,35.82,0.171,-0.21,0.137,0.048,0.207,-0.02,0,0.06,0.187,-0.34,0.143,0,0.236,-0.16,0,0,0.211,-0.08,0,0,0.189,-0.12,0,0.054,0.202,-0.19,0,0
23904,20090906,-91.78,35.82,0.188,-0.06,0.137,0.19,0.218,0.1,0,0.202,0.19,-0.31,0.143,0,0.234,-0.2,0,0,0.211,-0.09,0,0,0.203,0.01,0,0.196,0.208,-0.1,0,0.119
23904,20090907,-91.78,35.82,0.202,0.07,0.137,0.333,0.229,0.2,0,0.345,0.193,-0.28,0.143,0,0.233,-0.22,0,0,0.21,-0.1,0,0,0.215,0.14,0,0.339,0.213,-0.02,0,0.262
23904,20090908,-91.78,35.82,0.215,0.19,0.137,0.476,0.238,0.3,0,0.488,0.196,-0.25,0.143,0,0.232,-0.24,0,0,0.209,-0.12,0,0,0.226,0.24,0,0.482,0.218,0.05,0,0.298
23904,20090909,-91.78,35.82,0.226,0.29,0.137,0.56,0.246,0.38,0,0.631,0.198,-0.22,0.143,0,0.231,-0.25,0,0,0.209,-0.12,0,0,0.236,0.34,0,0.595,0.222,0.11,0,0.298
23904,20090910,-91.78,35.82,0.236,0.39,0.137,0.565,0.254,0.46,0,0.744,0.2,-0.19,0.137,0,0.231,-0.25,0,0,0.208,-0.14,0,0,0.245,0.42,0,0.619,0.226,0.17,0,0.298
23904,20090911,-91.78,35.82,0.26,0.62,0.071,0.708,0.271,0.64,0,0.887,0.212,-0.03,0.083,0.131,0.233,-0.19,0,0,0.208,-0.14,0,0,0.266,0.63,0,0.762,0.237,0.35,0,0.44
23904,20090912,-91.78,35.82,0.274,0.76,0,0.804,0.283,0.78,0,0.97,0.223,0.13,0,0.274,0.236,-0.11,0,0,0.207,-0.14,0,0,0.279,0.77,0,0.851,0.245,0.48,0,0.583
23904,20090913,-91.78,35.82,0.271,0.74,0,0.804,0.283,0.8,0,0.97,0.227,0.21,0,0.417,0.239,-0.03,0,0,0.207,-0.14,0,0,0.277,0.77,0,0.851,0.246,0.51,0,0.607
23904,20090914,-91.78,35.82,0.271,0.75,0,0.804,0.285,0.82,0,0.97,0.232,0.28,0,0.56,0.242,0.05,0,0,0.207,-0.14,0,0,0.278,0.79,0,0.851,0.247,0.54,0,0.607
23904,20090915,-91.78,35.82,0.281,0.86,0,0.804,0.294,0.94,0,0.97,0.242,0.44,0,0.702,0.247,0.16,0,0.06,0.207,-0.13,0,0,0.287,0.9,0,0.851,0.254,0.66,0,0.714
23904,20090916,-91.78,35.82,0.297,1.03,0,0.863,0.306,1.09,0,0.97,0.255,0.65,0,0.845,0.256,0.37,0,0.202,0.211,-0.01,0,0.065,0.301,1.06,0,0.881,0.265,0.85,0,0.857
23904,20090917,-91.78,35.82,0.315,1.22,0,1,0.321,1.27,0,1,0.271,0.9,0,0.988,0.267,0.63,0,0.345,0.225,0.32,0,0.208,0.318,1.24,0,1,0.28,1.11,0,1
23904,20090918,-91.78,35.82,0.314,1.23,0,1,0.322,1.29,0,1,0.273,0.95,0,1,0.272,0.75,0,0.488,0.235,0.58,0,0.351,0.318,1.25,0,1,0.283,1.18,0,1
23904,20090919,-91.78,35.82,0.318,1.28,0,1,0.325,1.34,0,1,0.277,1.02,0,1,0.277,0.87,0,0.631,0.245,0.83,0,0.494,0.322,1.31,0,1,0.288,1.27,0,1
23904,20090920,-91.78,35.82,0.325,1.38,0,1,0.331,1.42,0,1,0.282,1.12,0,1,0.282,1,0,0.774,0.255,1.09,0,0.637,0.328,1.39,0,1,0.295,1.4,0,1
23904,20090921,-91.78,35.82,0.33,1.45,0,1,0.336,1.5,0,1,0.287,1.21,0,1,0.287,1.11,0,0.917,0.265,1.35,0,0.78,0.333,1.46,0,1,0.301,1.51,0,1
23904,20090922,-91.78,35.82,0.328,1.45,0,1,0.336,1.52,0,1,0.288,1.24,0,1,0.291,1.22,0,1,0.275,1.6,0,0.923,0.332,1.47,0,1,0.303,1.58,0,1
23904,20090923,-91.78,35.82,0.324,1.42,0,1,0.334,1.54,0,1,0.286,1.23,0,1,0.29,1.21,0,1,0.28,1.76,0,1,0.329,1.47,0,1,0.303,1.59,0,1
23904,20090924,-91.78,35.82,0.318,1.38,0,1,0.331,1.54,0,1,0.281,1.18,0,1,0.287,1.14,0,1,0.277,1.69,0,1,0.324,1.45,0,1,0.299,1.54,0,1
23904,20090925,-91.78,35.82,0.32,1.42,0,1,0.332,1.61,0,1,0.283,1.23,0,1,0.287,1.16,0,1,0.276,1.69,0,1,0.326,1.5,0,1,0.3,1.59,0,1
23904,20090926,-91.78,35.82,0.318,1.41,0,1,0.332,1.65,0,1,0.282,1.24,0,1,0.287,1.16,0,1,0.277,1.71,0,1,0.325,1.52,0,1,0.299,1.61,0,1
23904,20090927,-91.78,35.82,0.312,1.35,0,1,0.329,1.65,0,1,0.279,1.21,0,1,0.285,1.13,0,1,0.276,1.71,0,1,0.32,1.49,0,1,0.296,1.58,0,1
23904,20090928,-91.78,35.82,0.307,1.3,0,1,0.325,1.64,0,1,0.276,1.18,0,1,0.284,1.09,0,1,0.275,1.69,0,1,0.316,1.46,0,1,0.294,1.55,0,1
23904,20090929,-91.78,35.82,0.3,1.2,0,1,0.32,1.58,0,1,0.272,1.11,0,1,0.282,1.04,0,1,0.273,1.65,0,1,0.31,1.38,0,1,0.289,1.48,0,1
23904,20090930,-91.78,35.82,0.29,1.08,0,1,0.313,1.49,0,1,0.266,1.03,0,1,0.279,0.97,0,1,0.27,1.57,0,1,0.302,1.28,0,1,0.284,1.37,0,1
23904,20091001,-91.78,35.82,0.28,0.93,0,0.935,0.305,1.38,0,1,0.26,0.93,0,1,0.276,0.9,0,1,0.268,1.5,0,1,0.293,1.15,0,1,0.278,1.26,0,1
23904,20091002,-91.78,35.82,0.27,0.77,0,0.851,0.296,1.23,0,1,0.252,0.81,0,1,0.272,0.8,0,1,0.265,1.42,0,1,0.283,1.01,0,1,0.271,1.12,0,1
23904,20091003,-91.78,35.82,0.264,0.68,0,0.851,0.29,1.12,0,1,0.246,0.71,0,1,0.269,0.71,0,1,0.261,1.32,0,1,0.277,0.91,0,1,0.266,1.02,0,1
23904,20091004,-91.78,35.82,0.259,0.59,0,0.851,0.284,1,0,1,0.242,0.63,0,1,0.266,0.64,0,1,0.257,1.21,0,1,0.271,0.81,0,1,0.262,0.92,0,1
23904,20091005,-91.78,35.82,0.257,0.55,0,0.851,0.281,0.92,0,1,0.238,0.57,0,1,0.264,0.57,0,1,0.253,1.12,0,1,0.269,0.75,0,1,0.259,0.86,0,1
23904,20091006,-91.78,35.82,0.259,0.55,0,0.851,0.279,0.87,0,1,0.236,0.53,0,1,0.262,0.52,0,1,0.25,1.03,0,1,0.269,0.73,0,1,0.257,0.83,0,1
23904,20091007,-91.78,35.82,0.267,0.65,0,0.851,0.283,0.9,0,1,0.238,0.57,0,1,0.26,0.47,0,0.988,0.247,0.96,0,1,0.275,0.8,0,1,0.259,0.88,0,1
23904,20091008,-91.78,35.82,0.276,0.74,0,0.917,0.289,0.95,0,1,0.242,0.64,0,1,0.26,0.44,0,0.988,0.245,0.89,0,1,0.282,0.88,0,1,0.262,0.94,0,1
23904,20091009,-91.78,35.82,0.286,0.85,0,1,0.297,1.04,0,1,0.249,0.76,0,1,0.261,0.45,0,0.988,0.244,0.86,0,1,0.291,0.98,0,1,0.267,1.04,0,1
23904,20091010,-91.78,35.82,0.296,0.96,0,1,0.305,1.13,0,1,0.258,0.93,0,1,0.267,0.56,0,0.988,0.249,1,0,1,0.301,1.08,0,1,0.275,1.21,0,1
23904,20091011,-91.78,35.82,0.304,1.04,0,1,0.312,1.21,0,1,0.263,1.03,0,1,0.27,0.61,0,0.988,0.253,1.1,0,1,0.308,1.16,0,1,0.281,1.32,0,1
23904,20091012,-91.78,35.82,0.309,1.08,0,1,0.318,1.28,0,1,0.268,1.11,0,1,0.273,0.65,0,0.988,0.263,1.36,0,1,0.313,1.22,0,1,0.286,1.43,0,1
23904,20091013,-91.78,35.82,0.312,1.11,0,1,0.322,1.32,0,1,0.273,1.17,0,1,0.276,0.69,0,0.988,0.278,1.76,0,1,0.317,1.24,0,1,0.292,1.54,0,1
23904,20091014,-91.78,35.82,0.318,1.15,0,1,0.327,1.37,0,1,0.28,1.27,0,1,0.285,0.86,0,1,0.299,2.34,0,1,0.323,1.29,0,1,0.302,1.73,0,1
23904,20091015,-91.78,35.82,0.322,1.18,0,1,0.33,1.39,0,1,0.284,1.31,0,1,0.3,1.14,0,1,0.331,3.19,0,1,0.326,1.32,0,1,0.314,1.95,0,1
23904,20091016,-91.78,35.82,0.322,1.16,0,1,0.331,1.38,0,1,0.286,1.31,0,1,0.319,1.52,0,1,0.362,3.99,0,1,0.326,1.31,0,1,0.324,2.14,0,1
23904,20091017,-91.78,35.82,0.319,1.1,0,1,0.33,1.34,0,1,0.286,1.24,0,1,0.332,1.79,0,1,0.387,4.6,0,1,0.324,1.26,0,1,0.331,2.24,0,1
23904,20091018,-91.78,35.82,0.32,1.1,0,1,0.331,1.33,0,1,0.288,1.24,0,1,0.347,2.11,0,1,0.415,5.27,0,1,0.325,1.25,0,1,0.34,2.39,0,1
23904,20091019,-91.78,35.82,0.321,1.1,0,1,0.332,1.33,0,1,0.291,1.25,0,1,0.362,2.4,0,1,0.437,5.78,0,1,0.327,1.25,0,1,0.349,2.52,0,1
23904,20091020,-91.78,35.82,0.322,1.09,0,1,0.334,1.33,0,1,0.294,1.26,0,1,0.373,2.64,0,1,0.455,6.16,0,1,0.328,1.24,0,1,0.356,2.62,0,1
23904,20091021,-91.78,35.82,0.314,0.97,0,1,0.33,1.26,0,1,0.29,1.15,0,1,0.378,2.73,0,1,0.466,6.35,0,1,0.322,1.14,0,1,0.356,2.57,0,1
23904,20091022,-91.78,35.82,0.31,0.89,0,1,0.327,1.21,0,1,0.288,1.08,0,1,0.375,2.67,0,1,0.466,6.26,0,1,0.319,1.06,0,1,0.353,2.48,0,1
23904,20091023,-91.78,35.82,0.318,0.96,0,1,0.332,1.26,0,1,0.3,1.22,0,1,0.373,2.6,0,1,0.467,6.19,0,1,0.325,1.11,0,1,0.358,2.51,0,1
23904,20091024,-91.78,35.82,0.324,1,0,1,0.335,1.3,0,1,0.311,1.35,0,1,0.373,2.56,0,1,0.468,6.11,0,1,0.329,1.14,0,1,0.362,2.54,0,1
23904,20091025,-91.78,35.82,0.327,1.01,0,1,0.338,1.31,0,1,0.315,1.38,0,1,0.374,2.53,0,1,0.469,6.02,0,1,0.332,1.15,0,1,0.365,2.55,0,1
23904,20091026,-91.78,35.82,0.33,1.01,0,1,0.339,1.32,0,1,0.318,1.39,0,1,0.377,2.54,0,1,0.469,5.93,0,1,0.335,1.15,0,1,0.367,2.56,0,1
23904,20091027,-91.78,35.82,0.334,1.04,0,1,0.342,1.34,0,1,0.322,1.42,0,1,0.383,2.59,0,1,0.47,5.81,0,1,0.338,1.18,0,1,0.37,2.59,0,1
23904,20091028,-91.78,35.82,0.345,1.16,0,1,0.349,1.44,0,1,0.337,1.62,0,1,0.39,2.7,0,1,0.472,5.69,0,1,0.347,1.29,0,1,0.379,2.72,0,1
23904,20091029,-91.78,35.82,0.355,1.27,0,1,0.355,1.54,0,1,0.352,1.83,0,1,0.398,2.86,0,1,0.473,5.56,0,1,0.355,1.41,0,1,0.387,2.85,0,1
23904,20091030,-91.78,35.82,0.359,1.33,0,1,0.357,1.6,0,1,0.355,1.85,0,1,0.401,2.92,0,1,0.474,5.43,0,1,0.358,1.48,0,1,0.389,2.88,0,1
23904,20091031,-91.78,35.82,0.366,1.44,0,1,0.36,1.7,0,1,0.359,1.91,0,1,0.402,2.95,0,1,0.475,5.32,0,1,0.363,1.6,0,1,0.392,2.95,0,1
23904,20091101,-91.78,35.82,0.373,1.56,0,1,0.365,1.81,0,1,0.37,2.09,0,1,0.403,3.01,0,1,0.475,5.23,0,1,0.369,1.73,0,1,0.397,3.05,0,1
23904,20091102,-91.78,35.82,0.381,1.69,0,1,0.371,1.95,0,1,0.383,2.3,0,1,0.404,3.07,0,1,0.476,5.16,0,1,0.376,1.87,0,1,0.403,3.17,0,1
23904,20091103,-91.78,35.82,0.389,1.81,0,1,0.376,2.07,0,1,0.395,2.51,0,1,0.405,3.14,0,1,0.477,5.1,0,1,0.382,2,0,1,0.409,3.27,0,1
23904,20091104,-91.78,35.82,0.39,1.84,0,1,0.378,2.14,0,1,0.397,2.56,0,1,0.406,3.17,0,1,0.478,5.04,0,1,0.384,2.05,0,1,0.41,3.29,0,1
23904,20091105,-91.78,35.82,0.392,1.89,0,1,0.379,2.2,0,1,0.399,2.62,0,1,0.407,3.18,0,1,0.478,4.99,0,1,0.386,2.1,0,1,0.411,3.31,0,1
23904,20091106,-91.78,35.82,0.388,1.84,0,1,0.379,2.21,0,1,0.398,2.63,0,1,0.408,3.18,0,1,0.479,4.93,0,1,0.383,2.07,0,1,0.41,3.27,0,1
23904,20091107,-91.78,35.82,0.383,1.77,0,1,0.377,2.2,0,1,0.396,2.64,0,1,0.408,3.16,0,1,0.479,4.87,0,1,0.38,2.02,0,1,0.409,3.21,0,1
23904,20091108,-91.78,35.82,0.379,1.71,0,1,0.375,2.17,0,1,0.39,2.56,0,1,0.408,3.14,0,1,0.48,4.8,0,1,0.377,1.96,0,1,0.407,3.12,0,1
23904,20091109,-91.78,35.82,0.374,1.61,0,1,0.372,2.1,0,1,0.379,2.38,0,1,0.408,3.12,0,1,0.48,4.73,0,1,0.373,1.86,0,1,0.403,3.01,0,1
23904,20091110,-91.78,35.82,0.367,1.5,0,1,0.367,2.01,0,1,0.367,2.17,0,1,0.408,3.1,0,1,0.48,4.66,0,1,0.367,1.75,0,1,0.398,2.89,0,1
23904,20091111,-91.78,35.82,0.36,1.38,0,1,0.362,1.9,0,1,0.353,1.94,0,1,0.404,3.02,0,1,0.481,4.6,0,1,0.361,1.62,0,1,0.392,2.75,0,1
23904,20091112,-91.78,35.82,0.353,1.26,0,1,0.357,1.79,0,1,0.34,1.7,0,1,0.397,2.89,0,1,0.481,4.54,0,1,0.355,1.5,0,1,0.385,2.62,0,1
23904,20091113,-91.78,35.82,0.345,1.13,0,1,0.351,1.67,0,1,0.326,1.44,0,1,0.389,2.74,0,1,0.481,4.48,0,1,0.348,1.36,0,1,0.378,2.47,0,1
23904,20091114,-91.78,35.82,0.338,1.01,0,1,0.345,1.55,0,1,0.312,1.17,0,1,0.38,2.57,0,1,0.482,4.42,0,1,0.341,1.24,0,1,0.371,2.31,0,1
23904,20091115,-91.78,35.82,0.332,0.91,0,1,0.34,1.44,0,1,0.302,0.97,0,1,0.368,2.33,0,1,0.478,4.28,0,1,0.336,1.13,0,1,0.364,2.14,0,1
23904,20091116,-91.78,35.82,0.329,0.86,0,1,0.336,1.38,0,1,0.297,0.87,0,1,0.354,2.05,0,1,0.467,4.04,0,1,0.332,1.08,0,1,0.357,1.99,0,1
23904,20091117,-91.78,35.82,0.33,0.88,0,1,0.336,1.38,0,1,0.295,0.83,0,1,0.345,1.88,0,1,0.461,3.89,0,1,0.333,1.09,0,1,0.353,1.9,0,1
23904,20091118,-91.78,35.82,0.329,0.86,0,1,0.334,1.36,0,1,0.293,0.78,0,1,0.335,1.68,0,1,0.451,3.67,0,1,0.332,1.08,0,1,0.348,1.79,0,1
23904,20091119,-91.78,35.82,0.329,0.86,0,1,0.333,1.33,0,1,0.291,0.73,0,1,0.326,1.48,0,1,0.439,3.42,0,1,0.331,1.07,0,1,0.344,1.67,0,1
23904,20091120,-91.78,35.82,0.33,0.85,0,1,0.332,1.31,0,1,0.29,0.69,0,1,0.317,1.28,0,1,0.425,3.16,0,1,0.331,1.06,0,1,0.339,1.55,0,1
23904,20091121,-91.78,35.82,0.329,0.84,0,1,0.331,1.28,0,1,0.288,0.65,0,1,0.309,1.09,0,1,0.411,2.89,0,1,0.33,1.05,0,1,0.334,1.44,0,1
23904,20091122,-91.78,35.82,0.329,0.83,0,1,0.331,1.26,0,1,0.286,0.6,0,0.881,0.303,0.95,0,0.982,0.401,2.7,0,1,0.33,1.03,0,1,0.33,1.36,0,1
23904,20091123,-91.78,35.82,0.327,0.79,0,1,0.329,1.22,0,1,0.283,0.53,0,0.738,0.299,0.84,0,0.845,0.397,2.61,0,1,0.328,1,0,1,0.327,1.29,0,1
23904,20091124,-91.78,35.82,0.322,0.7,0,1,0.325,1.13,0,1,0.279,0.41,0,0.595,0.291,0.62,0,0.702,0.387,2.44,0,1,0.324,0.91,0,1,0.321,1.16,0,1
23904,20091125,-91.78,35.82,0.319,0.65,0,1,0.323,1.06,0,1,0.276,0.33,0,0.452,0.286,0.48,0,0.56,0.371,2.19,0,1,0.321,0.86,0,1,0.315,1.04,0,1
23904,20091126,-91.78,35.82,0.317,0.59,0,1,0.321,1,0,1,0.273,0.26,0,0.31,0.283,0.38,0,0.417,0.355,1.92,0,1,0.319,0.8,0,1,0.31,0.92,0,1
23904,20091127,-91.78,35.82,0.315,0.54,0,0.94,0.319,0.94,0,1,0.27,0.18,0,0.167,0.281,0.3,0,0.274,0.339,1.66,0,1,0.317,0.75,0,1,0.305,0.81,0,1
23904,20091128,-91.78,35.82,0.312,0.48,0,0.798,0.317,0.88,0,1,0.268,0.1,0,0.024,0.279,0.22,0,0.131,0.324,1.41,0,1,0.315,0.69,0,1,0.3,0.7,0,0.94
23904,20091129,-91.78,35.82,0.31,0.43,0,0.655,0.314,0.81,0,1,0.266,0.03,0,0,0.278,0.15,0,0.006,0.309,1.16,0,1,0.312,0.63,0,0.976,0.295,0.59,0,0.81
23904,20091130,-91.78,35.82,0.31,0.43,0,0.571,0.313,0.77,0,1,0.264,-0.02,0,0,0.276,0.1,0,0,0.293,0.91,0,1,0.312,0.61,0,0.929,0.291,0.51,0,0.726
23904,20091201,-91.78,35.82,0.312,0.45,0,0.571,0.313,0.76,0,1,0.264,-0.05,0,0,0.275,0.05,0,0,0.279,0.67,0,1,0.313,0.61,0,0.929,0.289,0.44,0,0.726
23904,20091202,-91.78,35.82,0.312,0.45,0,0.571,0.313,0.74,0,1,0.264,-0.07,0,0,0.274,0.02,0,0,0.274,0.59,0,1,0.313,0.6,0,0.929,0.287,0.41,0,0.696
23904,20091203,-91.78,35.82,0.318,0.54,0,0.571,0.317,0.79,0,1,0.268,0.04,0,0.113,0.275,0.05,0,0.107,0.273,0.55,0,1,0.317,0.67,0,0.929,0.29,0.47,0,0.685
23904,20091204,-91.78,35.82,0.321,0.6,0,0.631,0.319,0.83,0,1,0.271,0.1,0,0.226,0.277,0.09,0,0.232,0.273,0.55,0,1,0.32,0.71,0,0.929,0.292,0.51,0,0.685
23904,20091205,-91.78,35.82,0.324,0.65,0,0.774,0.322,0.85,0,1,0.274,0.15,0,0.226,0.278,0.13,0,0.244,0.273,0.55,0,1,0.323,0.75,0,0.929,0.294,0.54,0,0.744
23904,20091206,-91.78,35.82,0.326,0.68,0,0.917,0.324,0.88,0,1,0.276,0.19,0,0.226,0.279,0.16,0,0.244,0.273,0.56,0,1,0.325,0.77,0,0.952,0.296,0.57,0,0.875
23904,20091207,-91.78,35.82,0.326,0.67,0,0.994,0.325,0.87,0,1,0.277,0.22,0,0.226,0.28,0.18,0,0.244,0.274,0.57,0,1,0.325,0.77,0,1,0.296,0.59,0,0.958